FW3585 Weather Reports


Display with metric or nautical units.
time (UTC)temp
F
wind
direction
speed
MPH
gust
MPH
rain 1hr
in
rain 24hr
in
rain mn
in
humidity
%
barometer
mb
20260901210031 94 241 0.0 5.0 0.00 0.00 0.00 51 1016.3
20260901204530 93 329 1.0 8.0 0.00 0.00 0.00 48 1016.3
20260901203036 93 331 2.0 9.0 0.00 0.00 0.00 49 1016.2
20260901201526 92 327 4.0 11.0 0.00 0.00 0.00 54 1016.3
20260901200026 93 333 3.0 12.0 0.00 0.00 0.00 53 1016.5
20260901194524 91 325 5.0 11.0 0.00 0.00 0.00 52 1016.5
20260901193025 93 343 3.0 8.0 0.00 0.00 0.00 50 1016.6
20260901191521 93 300 2.0 8.0 0.00 0.00 0.00 50 1016.9
20260901190023 93 290 2.0 12.0 0.00 0.00 0.00 53 1016.9
20260901184518 92 313 1.0 6.0 0.00 0.00 0.00 52 1017.1
20260901183015 93 232 1.0 10.0 0.00 0.00 0.00 53 1017.2
20260901181518 92 339 6.0 11.0 0.00 0.00 0.00 50 1017.3
20260901180014 92 306 5.0 10.0 0.00 0.00 0.00 53 1017.2
20260901174513 92 84 1.0 6.0 0.00 0.00 0.00 56 1017.2
20260901173008 91 355 2.0 8.0 0.00 0.00 0.00 55 1017.1
20260901171506 91 342 1.0 11.0 0.00 0.00 0.00 60 1017.3
20260901170009 90 329 4.0 10.0 0.00 0.00 0.00 54 1017.5
20260901164607 90 299 3.0 10.0 0.00 0.00 0.00 56 1017.8
20260901163056 89 273 4.0 10.0 0.00 0.00 0.00 61 1018.1
20260901161557 88 360 2.0 13.0 0.00 0.00 0.00 62 1018.2
20260901160055 87 290 2.0 8.0 0.00 0.00 0.00 61 1018.2
20260901154554 88 333 2.0 6.0 0.00 0.00 0.00 63 1018.3
20260901153048 89 303 2.0 8.0 0.00 0.00 0.00 62 1018.5
20260901151548 88 275 2.0 6.0 0.00 0.00 0.00 64 1018.5
20260901150057 88 271 1.0 6.0 0.00 0.00 0.00 66 1018.6
20260901144543 87 325 0.0 4.0 0.00 0.00 0.00 66 1018.7
20260901143032 87 224 1.0 4.0 0.00 0.00 0.00 68 1018.8
20260901141528 85 319 0.0 0.0 0.00 0.00 0.00 70 1018.7
20260901140024 84 275 0.0 0.0 0.00 0.00 0.00 72 1018.8
20260901134520 83 321 0.0 0.0 0.00 0.00 0.00 74 1018.8
20260901133016 81 324 0.0 5.0 0.00 0.00 0.00 77 1018.8
20260901131519 80 337 2.0 4.0 0.00 0.00 0.00 79 1018.8
20260901130006 78 360 2.0 4.0 0.00 0.00 0.00 84 1019.0
20260901124502 76 355 2.0 4.0 0.00 0.00 0.00 84 1019.0
20260901123114 75 355 2.0 5.0 0.00 0.00 0.00 87 1019.0
20260901121605 74 5 2.0 3.0 0.00 0.00 0.00 88 1018.8
20260901120104 73 5 1.0 4.0 0.00 0.00 0.00 90 1018.7
20260901114553 72 360 1.0 4.0 0.00 0.00 0.00 94 1018.7
20260901113056 69 348 1.0 2.0 0.00 0.00 0.00 97 1018.6
20260901111544 70 348 2.0 3.0 0.00 0.00 0.00 98 1018.4
20260901110040 69 347 1.0 3.0 0.00 0.00 0.00 97 1018.3
20260901104550 69 341 0.0 1.0 0.00 0.00 0.00 97 1018.2
20260901103040 68 341 0.0 2.0 0.00 0.00 0.00 97 1018.1
20260901101538 69 341 0.0 2.0 0.00 0.00 0.00 97 1018.0
20260901100041 69 341 2.0 3.0 0.00 0.00 0.00 97 1018.0
20260901094535 69 341 1.0 2.0 0.00 0.00 0.00 96 1018.0
20260901093034 69 341 0.0 2.0 0.00 0.00 0.00 96 1018.1
20260901091534 69 341 0.0 0.0 0.00 0.00 0.00 96 1017.8
20260901090031 69 341 1.0 3.0 0.00 0.00 0.00 96 1017.9
20260901084550 70 342 2.0 3.0 0.00 0.00 0.00 96 1018.0
20260901083033 70 340 0.0 1.0 0.00 0.00 0.00 96 1017.9
20260901081527 70 340 1.0 2.0 0.00 0.00 0.00 96 1018.1
20260901080028 70 340 0.0 1.0 0.00 0.00 0.00 95 1018.2
20260901074527 70 340 1.0 4.0 0.00 0.00 0.00 95 1018.2
20260901073025 70 339 2.0 5.0 0.00 0.00 0.00 95 1018.4
20260901071523 71 348 0.0 1.0 0.00 0.00 0.00 94 1018.3
20260901070021 71 348 0.0 0.0 0.00 0.00 0.00 93 1018.1
20260901064519 71 348 0.0 0.0 0.00 0.00 0.00 93 1018.2
20260901063018 72 348 0.0 0.0 0.00 0.00 0.00 93 1018.5
20260901061516 72 348 0.0 0.0 0.00 0.00 0.00 92 1018.5
20260901060014 72 348 0.0 3.0 0.00 0.00 0.00 92 1018.5
20260901054513 72 355 0.0 0.0 0.00 0.00 0.00 92 1018.9
20260901053011 73 341 0.0 0.0 0.00 0.00 0.00 91 1019.0
20260901051509 73 342 0.0 0.0 0.00 0.00 0.00 90 1018.8
20260901050007 73 342 0.0 0.0 0.00 0.00 0.00 89 1018.9
20260901044507 74 344 0.0 1.0 0.00 0.00 0.00 88 1018.9
20260901043002 75 59 0.0 0.0 0.00 0.00 0.00 86 1018.9
20260901041600 76 82 0.0 0.0 0.00 0.00 0.00 85 1019.0
20260901040057 76 86 0.0 0.0 0.00 0.00 0.00 83 1019.1
20260901034606 77 87 0.0 0.0 0.00 0.00 0.00 81 1019.1
20260901033110 78 88 0.0 0.0 0.00 0.00 0.00 80 1018.9
20260901031554 79 88 0.0 0.0 0.00 0.00 0.00 79 1019.0
20260901030054 79 89 0.0 7.0 0.00 0.00 0.00 78 1019.1
20260901024558 79 104 4.0 9.0 0.00 0.00 0.00 77 1019.0
20260901023055 80 129 4.0 11.0 0.00 0.00 0.00 76 1018.8
20260901021552 80 94 5.0 11.0 0.00 0.00 0.00 75 1018.7
20260901020051 80 87 2.0 8.0 0.00 0.00 0.00 74 1018.8
20260901014651 81 82 0.0 6.0 0.00 0.00 0.00 74 1018.8
20260901013051 81 96 7.0 14.0 0.00 0.00 0.00 73 1018.7
20260901011550 81 40 1.0 10.0 0.00 0.00 0.00 74 1018.6
20260901010049 81 63 3.0 8.0 0.00 0.00 0.00 75 1018.4
20260901004600 81 72 4.0 11.0 0.00 0.00 0.00 76 1018.3
20260901003048 82 63 2.0 10.0 0.00 0.00 0.00 75 1018.3
20260901001553 83 30 0.0 5.0 0.00 0.00 0.00 72 1018.1
20260901000101 84 322 2.0 6.0 0.00 0.00 0.00 68 1018.0
20260831234547 85 128 0.0 2.0 0.00 0.00 0.00 64 1017.8
20260831233046 86 125 0.0 3.0 0.00 0.00 0.00 63 1017.8
20260831231546 87 140 4.0 9.0 0.00 0.00 0.00 60 1017.8
20260831230046 88 186 2.0 5.0 0.00 0.00 0.00 59 1017.7
20260831224545 90 173 2.0 8.0 0.00 0.00 0.00 57 1017.8
20260831223044 90 111 2.0 9.0 0.00 0.00 0.00 53 1017.6
20260831221543 90 83 2.0 5.0 0.00 0.00 0.00 52 1017.7
20260831220043 90 72 4.0 8.0 0.00 0.00 0.00 52 1017.5
20260831214542 90 61 2.0 6.0 0.00 0.00 0.00 51 1017.5
20260831213041 90 79 3.0 6.0 0.00 0.00 0.00 52 1017.4
20260831211543 90 71 0.0 8.0 0.00 0.00 0.00 53 1017.5